GFSGL_250_spd_333.txt.gz
Wind_Speed
50 55 59 58 47 57 54 54 54 62 57 52 58 64 70 71 76 76 78 78 80 84 83 83 86 86 89 100 100 96 97 91 84 80 74 73 75 74 78 72 72 76 75
55 58 61 59 60 61 62 66 65 62 63 61 62 60 66 73 80 83 82 85 87 89 91 93 96 99 109 110 107 93 82 77 75 77 76 76 75 81 82 78 78 80 80
69 68 62 70 65 72 69 76 77 72 72 74 73 81 79 81 85 89 90 93 93 95 99 104 110 109 114 105 94 88 83 83 84 87 87 92 91 88 90 90 91 92 89
60 71 78 74 73 75 76 80 80 79 75 78 81 85 86 87 89 89 90 95 102 105 107 111 116 108 102 98 97 96 96 94 87 86 87 87 92 88 87 92 96 92 94
62 65 76 83 88 81 78 83 84 87 90 88 88 91 90 94 98 105 107 107 110 112 115 109 96 92 93 95 97 100 94 90 82 80 78 75 72 71 72 80 84 84 90
60 64 67 72 79 87 88 88 85 86 87 91 91 91 92 97 104 106 108 108 105 99 96 91 95 97 101 93 87 81 74 68 66 63 61 64 64 63 65 70 77 81 83
52 54 57 62 68 73 80 80 83 84 85 89 94 97 100 103 103 101 101 99 92 90 93 96 96 88 76 68 61 54 50 49 51 51 52 50 46 49 54 57 62 69 76
44 45 48 53 56 60 65 73 79 85 89 91 93 93 91 87 86 85 83 83 88 89 86 79 72 65 57 51 45 42 40 39 36 37 36 37 38 40 43 45 47 54 65
34 37 39 41 44 47 49 51 55 59 63 65 67 68 72 73 73 76 80 81 80 73 64 54 46 43 39 32 26 23 23 27 29 28 27 27 27 29 30 32 36 44 48
27 26 27 29 30 33 38 41 44 49 54 59 63 67 70 74 74 72 70 58 55 47 38 31 28 26 23 20 22 23 25 28 28 27 26 27 29 30 30 33 35 37 40
26 28 29 30 32 36 40 45 50 55 58 62 63 62 64 64 62 51 43 40 33 27 23 19 16 15 16 17 17 19 21 22 25 26 28 29 32 36 36 36 39 43 48
24 27 32 36 39 43 44 47 50 49 50 53 57 56 52 48 40 35 29 24 19 16 15 13 14 13 14 17 19 21 22 23 23 26 28 30 32 35 39 40 39 40 44
27 30 33 35 37 39 38 37 40 42 45 47 45 45 43 37 33 27 25 23 20 18 18 19 17 15 19 20 22 24 25 27 28 27 30 35 36 35 38 42 44 44 46
32 31 31 31 30 30 29 34 37 34 35 38 39 39 37 34 30 28 27 25 22 22 21 21 22 24 23 23 25 26 28 27 27 29 32 34 36 40 44 48 51 50 53
20 21 22 22 25 31 33 36 38 39 38 39 40 40 37 33 32 29 29 28 27 25 23 23 23 22 24 25 27 30 29 26 28 30 34 37 42 44 46 50 51 53 57
26 26 28 30 35 38 40 41 40 40 44 43 44 43 40 34 32 31 31 30 29 28 25 22 21 22 25 28 32 34 34 32 33 34 37 40 42 45 49 53 55 58 59
33 36 34 30 36 36 40 41 43 47 46 46 48 47 41 36 34 32 33 33 31 30 30 27 26 27 28 33 36 36 37 37 36 36 40 46 50 54 55 55 56 60 64
32 30 31 33 36 39 42 42 46 45 47 51 53 49 39 36 39 35 33 33 32 31 32 35 35 32 32 40 39 40 41 42 41 43 49 54 56 59 62 61 63 66 70
29 29 32 37 40 43 44 45 46 46 51 55 51 44 38 40 41 36 34 33 34 35 34 36 38 35 40 41 42 44 44 43 45 47 51 54 57 59 62 65 68 70 73
38 38 41 43 47 45 42 43 46 50 52 50 46 43 41 39 40 38 35 31 32 34 36 37 37 38 38 40 43 44 45 46 48 51 54 57 59 61 66 70 73 76 79
43 44 46 48 46 42 44 48 49 48 46 39 34 32 34 37 37 34 34 31 30 32 35 35 32 32 34 44 45 44 46 50 53 55 57 58 60 64 68 72 75 79 81
46 48 50 50 45 47 50 48 44 46 39 31 22 18 23 30 33 34 34 32 33 37 35 33 34 36 47 49 48 46 49 53 57 58 59 62 66 70 73 77 78 81 82
49 49 50 47 48 50 50 43 42 42 33 25 19 19 23 29 34 33 32 34 37 37 35 36 42 47 48 50 48 49 52 56 58 59 63 67 70 73 76 81 82 82 84
45 46 45 48 49 45 38 38 42 36 31 25 26 28 30 31 31 30 32 35 34 36 39 40 42 47 49 47 49 53 56 58 61 64 67 70 73 76 80 83 83 85 89
41 45 46 39 42 40 38 40 39 34 30 28 28 28 29 29 29 30 32 35 39 40 40 43 45 48 49 52 55 58 60 63 66 70 75 78 81 84 86 85 83 86 85
43 47 48 50 49 41 37 39 37 33 30 28 25 25 27 30 33 36 38 40 42 44 44 46 46 47 51 57 60 62 64 67 72 76 78 81 85 86 89 86 84 85 88

GFSGL_250_spd_339.txt.gz
Wind_Speed
61 63 51 62 61 61 47 60 54 57 55 56 57 57 53 56 60 63 55 58 57 60 64 66 66 70 76 77 78 77 77 81 84 86 86 90 87 86 101 96 93 100 101
63 66 69 55 67 63 64 54 55 63 66 63 63 64 63 69 67 63 69 69 66 65 63 73 74 75 80 82 83 82 85 85 93 90 98 96 104 99 101 106 107 110 110
61 62 66 67 64 68 71 70 65 69 75 70 67 65 70 73 71 73 77 84 79 80 78 75 75 79 83 88 92 95 97 97 99 101 101 102 106 111 111 114 117 118 112
56 63 67 70 73 72 68 76 74 74 76 84 85 89 87 88 87 89 89 84 84 84 87 87 87 87 87 87 91 95 100 106 108 109 113 115 117 121 123 122 120 116 108
53 53 57 61 66 71 71 73 83 81 72 72 78 86 91 90 92 95 89 86 86 89 92 89 91 95 97 101 106 109 113 113 118 111 118 123 124 119 119 113 98 90 82
36 44 48 58 65 66 65 70 83 90 81 81 82 84 83 82 81 79 85 87 93 96 100 100 101 105 106 108 113 114 118 120 122 117 109 116 108 105 92 85 76 59 55
32 34 38 48 56 58 62 71 76 84 92 93 92 89 91 90 91 91 92 93 95 96 97 98 103 105 107 111 108 110 109 102 98 96 92 89 74 75 60 50 46 43 42
36 35 37 40 47 53 62 66 71 77 84 91 93 92 92 94 91 90 93 95 96 98 98 97 94 89 83 82 83 84 83 81 81 73 67 59 49 43 39 34 34 32 32
28 31 28 30 35 41 44 49 63 69 73 76 83 83 80 83 80 77 80 78 74 73 72 69 70 72 71 75 77 76 73 67 58 45 39 36 34 33 33 31 30 31 31
20 22 24 26 27 30 34 39 39 41 44 49 52 56 58 55 51 51 53 57 62 65 69 72 73 74 74 72 64 57 50 40 35 31 28 27 28 28 28 28 25 24 24
22 21 22 25 27 23 23 25 27 28 31 34 37 41 44 47 51 52 54 58 62 66 67 67 66 60 51 45 42 35 30 28 26 23 25 26 28 27 25 25 24 23 24
20 22 24 22 24 26 27 29 31 33 36 40 45 47 45 47 48 48 51 55 55 56 53 51 47 43 38 33 31 30 29 26 23 24 23 23 24 25 24 24 27 28 27
24 25 25 28 31 34 34 33 34 37 42 45 46 46 46 46 45 46 50 50 48 49 48 46 42 36 34 33 32 32 30 29 28 26 25 25 23 22 23 25 28 27 26
22 27 31 27 25 26 28 26 27 29 30 31 34 38 40 42 45 48 49 48 49 52 48 47 44 40 37 36 35 33 31 33 33 30 28 28 29 29 30 29 30 32 34
22 24 24 23 25 25 27 28 29 31 35 38 41 43 46 48 51 54 52 51 52 52 50 50 48 43 41 39 37 35 34 36 35 33 32 32 33 34 36 37 37 37 38
25 26 25 27 28 29 30 33 32 32 35 39 42 45 48 52 56 57 55 55 53 52 54 54 49 45 44 40 38 37 35 35 34 35 35 37 40 40 40 42 43 43 43
27 27 28 30 31 32 30 29 33 36 38 40 43 46 50 50 49 49 48 50 54 58 58 54 50 45 43 41 39 39 38 37 37 37 42 43 45 44 42 44 45 46 48
28 26 29 32 36 35 37 38 41 44 45 46 46 52 54 49 48 53 56 55 54 55 57 55 47 41 41 40 39 41 41 39 40 43 43 43 44 47 44 48 49 49 50
32 35 32 29 35 40 43 48 49 48 50 51 52 54 54 52 53 53 51 51 54 53 49 45 41 40 40 38 37 40 42 43 42 43 45 46 48 48 48 53 53 54 53
37 38 38 39 41 45 47 46 47 49 49 49 51 52 49 48 48 46 47 48 45 44 43 42 39 38 37 38 38 39 40 40 41 43 46 48 49 51 55 59 58 58 56
37 38 38 39 41 42 44 46 47 46 46 50 50 47 44 53 49 47 49 39 35 33 28 29 32 33 36 38 39 39 39 38 39 41 42 46 49 54 58 59 62 62 63
39 38 41 43 44 45 44 44 44 47 50 52 45 40 53 52 45 43 40 33 29 26 20 19 24 29 34 37 40 42 42 42 44 44 47 51 53 57 60 62 63 65 69
39 42 45 47 47 45 44 44 46 51 46 44 52 55 51 48 43 42 37 33 28 24 22 22 27 34 39 41 43 44 46 46 47 50 52 54 58 61 62 61 63 66 71
44 45 48 52 49 48 47 46 43 44 46 53 53 51 45 40 40 40 33 29 26 19 22 20 26 55 53 47 42 42 45 48 54 56 58 63 63 60 60 66 70 72 75
43 47 50 47 43 39 40 37 40 41 40 44 50 39 36 36 34 30 30 29 26 23 21 24 37 44 39 40 42 45 48 53 57 61 60 57 59 64 68 74 81 84 88
50 49 42 38 37 40 39 42 41 41 36 33 31 27 26 25 25 25 24 24 24 27 28 29 31 34 39 42 46 50 53 53 52 54 56 58 60 67 73 77 84 85 87

GFSGL_250_spd_342.txt.gz
Wind_Speed
47 51 55 64 71 67 59 54 55 65 61 62 67 64 61 64 64 60 61 54 52 55 56 58 56 56 53 56 64 66 68 73 75 72 77 83 82 81 89 82 79 86 89
56 47 53 62 66 75 77 69 69 63 62 63 64 66 68 64 63 61 65 65 61 62 60 61 58 60 64 68 70 71 68 76 77 78 84 87 87 91 90 93 97 104 103
49 46 49 55 62 73 85 86 68 64 64 72 67 64 63 68 66 70 71 70 68 70 71 75 76 76 77 76 78 81 83 81 85 84 86 88 88 97 94 104 103 108 109
30 31 40 45 56 67 79 86 88 78 76 80 82 77 70 66 68 74 76 74 76 74 72 75 77 78 80 87 89 85 84 87 89 94 97 101 104 106 111 109 111 111 112
15 13 64 47 50 62 74 81 84 93 93 84 90 90 89 80 76 76 79 81 85 86 90 89 87 90 91 93 97 97 97 94 98 101 104 106 108 109 113 115 118 119 116
45 50 55 43 44 45 52 64 78 86 87 92 93 90 90 95 94 83 80 81 82 90 95 96 98 102 98 98 91 90 90 95 101 103 105 109 110 110 109 96 94 97 87
44 44 29 40 41 46 53 55 63 70 83 87 91 95 94 92 98 96 85 86 84 85 85 86 89 92 95 98 100 102 103 106 105 111 111 102 96 90 86 79 73 63 58
31 38 37 35 35 38 41 49 57 62 68 71 79 82 83 89 91 96 95 89 88 90 94 97 100 103 101 102 101 95 99 95 86 87 83 81 77 73 64 55 47 40 38
35 39 39 42 43 42 46 46 48 55 62 67 74 76 76 79 85 90 89 91 89 88 86 89 89 89 85 78 78 80 78 75 76 74 68 60 55 48 40 33 30 28 29
20 33 36 38 43 39 40 37 35 37 43 50 54 57 57 58 62 62 67 68 65 65 67 65 65 67 67 68 69 69 66 61 55 49 44 38 33 30 27 25 26 26 26
21 18 18 21 24 23 26 28 27 25 28 32 34 36 38 38 38 40 43 47 50 53 55 56 58 59 59 58 55 51 47 44 39 33 30 29 27 26 26 25 22 22 23
16 18 22 22 21 19 20 20 24 26 27 30 34 36 38 40 41 44 47 47 47 47 48 48 49 51 50 49 47 47 44 37 32 31 30 27 26 25 23 22 22 20 20
17 20 22 26 25 24 27 29 32 33 32 35 38 41 42 40 37 35 37 39 43 47 48 49 51 50 52 50 48 46 43 38 35 32 32 33 30 28 26 23 24 26 27
23 22 20 21 23 23 22 24 25 27 30 32 31 31 32 35 37 36 37 41 46 51 53 55 55 55 53 51 47 46 43 39 37 35 33 35 36 34 33 30 28 26 29
25 23 22 22 24 25 27 26 24 26 28 30 29 31 32 34 36 39 39 42 48 51 51 52 52 48 48 48 49 48 43 40 39 38 35 37 38 38 37 38 41 40 38
28 26 26 24 25 26 26 28 30 31 30 29 31 35 37 41 42 42 45 51 52 51 49 49 50 51 52 53 54 51 47 44 42 41 40 39 39 39 40 41 42 42 42
30 30 30 27 28 30 31 34 33 34 36 37 41 44 47 50 51 53 53 52 52 52 53 54 55 55 55 51 51 51 50 47 45 44 44 41 40 41 44 46 45 45 44
30 33 31 29 31 34 35 34 36 38 42 45 48 50 52 51 50 50 50 52 50 51 51 50 50 53 54 52 48 45 43 28 48 45 43 44 43 42 44 46 46 48 48
39 37 39 36 35 36 36 38 39 42 46 48 50 50 50 50 47 47 52 51 46 50 45 43 45 49 49 43 37 34 28 29 35 40 42 45 46 45 46 46 49 48 46
44 39 37 36 38 39 37 36 39 42 45 46 48 48 50 47 50 45 48 48 53 55 46 44 51 46 41 35 32 33 32 31 38 42 40 44 44 41 41 45 47 48 50
38 39 39 41 40 37 39 42 42 43 47 48 42 44 47 51 49 49 53 53 60 47 44 39 35 33 23 19 22 30 34 17 46 45 45 46 44 42 44 46 49 52 54
39 40 41 42 39 40 44 44 47 53 49 43 41 47 49 43 49 53 54 53 49 42 39 32 25 23 14 16 13 15 21 26 35 43 44 46 48 49 51 53 56 58 62
41 40 42 42 43 47 46 48 51 47 40 39 37 39 41 44 51 47 56 44 33 32 27 23 21 24 23 21 21 25 34 45 50 56 48 45 48 52 56 58 62 64 65
43 44 43 41 44 43 49 51 44 39 37 36 38 44 44 50 52 54 49 32 21 18 13 10 14 22 23 21 25 33 37 48 50 48 46 48 55 62 64 65 65 60 61
39 38 41 44 43 48 39 47 48 42 39 41 41 40 36 31 32 31 27 21 17 19 17 17 15 14 8 21 40 37 38 50 48 43 47 53 59 61 62 64 66 66 71
42 43 43 44 46 47 45 51 48 44 41 40 38 30 27 27 26 23 20 20 16 15 15 13 7 5 2 16 22 39 29 23 62 56 57 59 57 67 68 71 73 77 82

GFSGL_250_spd_345.txt.gz
Wind_Speed
51 53 52 53 54 60 66 70 72 71 75 71 68 69 66 65 67 66 65 67 65 65 61 57 58 58 57 56 57 56 56 55 60 61 60 61 65 69 71 69 71 73 76
58 58 51 49 52 63 67 71 74 72 75 77 80 77 76 74 72 68 69 70 69 66 66 63 62 61 64 63 62 60 61 61 62 65 70 75 75 74 76 80 85 89 88
67 63 55 50 56 49 49 62 68 76 76 76 72 74 75 82 79 76 73 69 69 70 72 65 60 62 65 65 65 67 68 70 75 81 84 87 79 86 82 81 90 92 102
67 63 53 52 49 31 32 38 57 69 75 78 83 76 74 80 79 81 79 77 76 76 74 67 66 65 66 71 72 73 74 71 71 74 85 87 87 89 90 93 103 101 99
54 46 47 44 37 26 32 49 48 51 59 67 76 84 86 83 80 82 81 79 79 77 73 71 72 71 73 76 76 76 78 81 90 89 88 92 94 101 101 98 100 104 109
39 29 37 36 26 20 22 50 51 55 58 59 70 80 84 91 93 87 80 79 80 84 83 82 82 80 80 81 85 88 92 95 96 98 100 102 105 100 103 111 106 100 93
26 28 38 44 40 25 35 59 55 57 60 64 66 69 75 80 83 86 91 90 92 93 91 94 91 90 91 93 96 99 94 94 96 98 98 100 104 104 99 93 92 88 81
21 28 47 50 53 58 45 42 41 45 50 59 60 62 67 69 71 76 83 84 83 85 85 87 90 92 94 96 96 95 93 93 92 94 102 99 93 82 81 75 70 62 56
21 25 42 57 47 50 48 46 44 45 46 46 48 51 54 59 61 61 65 68 73 76 77 76 78 78 80 79 75 76 77 73 74 73 72 72 71 67 61 49 45 40 35
21 15 36 50 51 52 54 54 53 52 50 53 53 52 51 48 47 47 49 51 54 54 51 51 52 51 52 56 56 57 58 59 60 57 55 55 48 43 38 34 32 29 29
28 23 15 32 53 55 53 54 50 52 49 40 31 30 30 30 31 32 34 34 36 38 41 43 44 45 46 46 47 48 49 48 47 44 41 38 35 34 30 29 27 26 25
25 23 21 20 21 26 26 26 27 23 23 25 27 29 31 32 33 34 34 36 39 41 41 39 38 40 43 46 47 48 49 47 45 42 37 34 33 31 29 28 27 26 25
32 25 25 23 24 27 29 30 28 29 30 28 29 32 32 33 34 34 32 32 33 34 34 37 39 39 41 45 47 50 51 47 41 39 39 35 33 31 32 33 32 30 27
37 30 29 28 24 25 26 28 28 26 24 24 25 25 30 33 31 31 31 33 34 36 39 43 45 45 47 46 44 42 41 39 39 40 40 39 35 36 35 36 37 36 35
40 36 31 28 26 26 29 29 26 25 26 28 29 31 34 32 30 31 33 36 39 41 44 46 49 50 50 47 45 45 46 45 46 45 45 43 38 38 39 36 35 34 38
36 33 36 31 31 31 32 31 29 30 30 32 33 34 35 37 37 40 40 42 46 47 48 47 47 49 48 49 51 48 46 46 46 44 43 40 40 37 38 36 36 37 37
33 33 30 27 28 30 31 31 30 33 35 36 37 39 41 43 44 46 48 49 47 45 42 44 47 46 44 53 50 43 46 45 44 43 43 40 40 35 34 36 38 38 38
42 41 37 36 37 36 38 40 38 37 38 38 38 39 40 43 45 46 44 44 45 44 46 46 47 44 48 55 46 47 44 39 37 35 35 33 29 28 33 37 38 40 41
42 45 45 42 41 41 43 42 40 41 42 38 38 39 40 44 47 46 44 45 45 45 46 46 51 52 51 44 40 42 39 35 29 27 26 30 22 27 32 41 42 42 41
36 39 44 45 42 42 40 39 41 45 41 40 43 43 48 52 49 43 44 42 45 48 45 49 50 51 40 32 27 28 19 17 19 25 27 31 28 31 38 42 41 42 44
37 45 40 41 38 36 40 43 45 44 41 45 45 48 51 50 46 44 47 51 52 46 43 46 49 37 31 15 6 7 7 3 9 18 20 20 25 32 37 39 39 40 46
44 36 37 35 38 44 46 48 47 43 44 45 49 49 45 44 44 46 45 45 45 46 52 46 40 29 22 21 18 10 6 4 7 13 19 27 36 41 37 33 33 37 42
35 45 38 34 41 46 49 49 44 45 47 49 48 43 46 45 45 45 42 42 40 38 35 36 29 23 18 18 22 22 19 15 19 21 22 28 33 35 40 41 41 42 49
33 36 40 49 44 46 48 49 46 41 46 50 44 47 51 45 43 39 32 31 32 30 23 22 21 17 13 20 18 18 17 18 19 22 23 28 29 32 36 47 48 53 52
42 44 49 49 49 47 45 47 43 47 47 44 47 54 47 42 35 29 33 30 24 19 18 19 17 15 19 23 27 24 19 22 29 33 35 38 40 41 43 47 56 65 66
38 40 49 50 48 46 44 43 41 43 39 42 41 33 32 29 24 23 25 21 14 11 10 11 13 14 15 15 23 26 24 29 29 32 42 43 42 43 49 46 47 55 69

GFSGL_250_spd_348.txt.gz
Wind_Speed
48 50 53 52 48 48 55 67 68 63 65 65 64 68 70 66 67 65 64 67 70 68 67 65 64 62 64 62 57 61 57 59 58 60 63 63 64 61 61 63 64 68 72
53 56 58 57 56 48 52 39 55 59 60 66 65 66 71 73 82 81 79 78 72 71 70 70 73 76 68 66 63 58 63 64 61 61 67 68 68 68 67 69 71 75 80
55 58 58 55 44 42 50 46 43 54 56 60 61 70 72 75 77 80 80 82 75 74 77 74 72 72 71 73 70 71 69 69 69 67 71 75 72 73 74 76 80 84 83
62 59 59 45 39 46 50 65 58 61 60 60 56 55 59 68 68 72 75 77 79 76 79 82 80 78 78 76 77 75 75 76 75 74 76 77 78 78 80 83 81 84 86
65 60 59 31 53 71 72 74 62 61 48 57 57 51 53 58 55 54 62 66 71 73 72 72 72 74 76 78 80 77 79 77 74 70 73 77 77 78 82 83 86 93 96
61 71 61 28 47 65 73 71 63 58 62 60 49 53 57 61 51 46 52 67 79 78 77 80 81 83 78 80 79 77 74 79 82 86 90 91 93 91 94 94 94 98 99
57 64 56 46 24 52 59 58 54 60 59 56 60 54 61 59 61 67 66 63 59 61 70 81 87 83 86 83 81 84 85 88 91 89 91 90 88 87 90 94 88 85 83
59 63 49 45 31 39 55 51 53 59 58 57 54 55 54 55 53 53 59 60 59 59 60 62 62 65 70 77 82 85 84 82 81 78 78 74 75 74 75 74 72 71 73
60 55 46 35 27 33 45 46 45 46 49 49 49 48 52 56 52 56 55 53 55 56 53 52 53 54 56 58 62 62 60 63 63 60 61 62 64 65 67 67 66 65 59
56 51 44 33 25 33 48 48 51 50 49 54 57 62 61 66 63 49 49 42 40 37 36 36 37 38 39 40 42 46 48 51 51 54 56 56 59 59 57 55 51 43 40
54 46 44 35 22 21 44 57 60 64 65 66 61 65 58 50 40 37 33 33 32 33 35 37 38 38 38 40 42 44 46 48 51 54 55 55 53 50 46 40 37 36 33
49 49 39 33 30 24 29 37 45 59 70 62 57 54 44 36 36 33 33 34 34 36 38 39 39 36 36 38 42 44 45 45 46 48 50 50 48 43 39 35 33 34 32
47 43 37 33 28 27 26 28 25 28 32 35 38 39 39 36 32 31 32 33 34 35 35 36 37 38 40 41 45 48 50 52 50 49 46 41 38 37 38 37 35 35 34
41 41 38 32 30 30 27 26 27 26 29 34 35 35 34 32 30 32 36 36 32 31 33 36 39 40 43 45 47 50 53 51 47 46 45 43 39 38 39 39 38 38 38
37 31 32 30 23 25 26 28 28 31 30 31 34 33 33 33 34 37 38 37 38 38 41 43 45 46 48 48 49 49 48 49 43 43 44 46 47 46 46 43 40 37 39
34 27 31 31 24 25 27 26 27 28 28 29 32 36 37 38 40 39 42 45 46 48 49 49 50 50 50 49 46 46 45 45 48 49 47 44 45 44 45 43 42 38 41
29 29 35 31 30 32 29 30 30 30 31 34 36 34 36 39 41 43 43 43 45 47 49 50 51 51 51 47 48 50 50 50 48 52 48 44 44 42 41 41 40 37 36
26 28 29 23 25 29 34 39 42 40 38 33 34 36 39 40 39 41 44 46 47 51 56 56 54 50 48 49 51 49 50 50 53 50 47 48 46 42 41 41 37 29 25
22 26 27 25 28 28 29 32 31 30 31 33 35 38 40 42 42 44 46 49 53 53 52 52 53 50 47 50 45 46 48 49 43 45 48 49 43 40 40 36 30 26 26
27 29 23 26 32 35 38 34 31 31 34 36 40 41 42 42 44 46 46 46 45 44 45 49 50 47 48 48 48 47 39 29 35 37 33 29 31 35 32 27 21 23 26
29 32 32 32 37 39 40 36 36 40 44 45 47 46 39 41 46 47 41 43 41 40 41 43 46 47 46 46 47 36 21 14 21 17 15 18 23 19 18 21 24 26 30
30 24 31 35 37 40 41 44 42 43 50 49 49 49 47 45 45 48 39 42 41 40 41 41 41 40 41 38 34 27 26 21 18 14 18 17 20 24 24 26 28 27 27
43 43 36 41 43 36 39 42 48 53 59 58 57 56 50 48 50 47 46 49 46 39 36 36 35 35 32 27 26 28 35 30 28 27 25 19 22 27 31 32 37 33 37
38 42 46 39 35 43 49 52 51 56 54 52 50 50 49 47 41 44 48 40 31 30 30 31 33 33 30 27 24 26 31 35 33 34 29 28 28 31 32 32 33 35 39
23 26 27 35 43 43 44 54 58 55 49 46 44 41 36 29 30 34 27 24 26 28 27 27 28 26 27 24 24 27 26 32 38 30 28 29 36 38 39 42 43 37 38
29 29 33 35 43 47 48 49 49 46 38 35 28 23 20 20 17 15 18 19 19 23 24 23 21 20 23 25 26 25 26 31 34 35 38 39 39 40 38 42 46 50 53